TimeCST,TemperatureF,Dew PointF,Humidity,Sea Level PressureIn,VisibilityMPH,Wind Direction,Wind SpeedMPH,Gust SpeedMPH,PrecipitationIn,Events,Conditions,WindDirDegrees,DateUTC
12:13 AM,-0.4,-5.8,78,29.96,10.0,NW,15.0,-,N/A,,Clear,320,2013-12-19 06:13:00
12:33 AM,-0.4,-5.8,78,29.97,10.0,NNW,16.1,-,N/A,,Clear,330,2013-12-19 06:33:00
12:54 AM,-2.2,-7.6,78,29.98,10.0,NNW,16.1,-,N/A,,Clear,330,2013-12-19 06:54:00
1:13 AM,-2.2,-7.6,78,29.98,10.0,NNW,13.8,-,N/A,,Clear,330,2013-12-19 07:13:00
1:33 AM,-2.2,-7.6,78,30.01,10.0,NW,13.8,-,N/A,,Clear,320,2013-12-19 07:33:00
1:54 AM,-2.2,-7.6,78,30.02,10.0,NNW,12.7,-,N/A,,Clear,340,2013-12-19 07:54:00
2:13 AM,-4.0,-7.6,85,30.03,10.0,NNW,12.7,-,N/A,,Clear,330,2013-12-19 08:13:00
2:33 AM,-4.0,-9.4,78,30.05,10.0,NNW,16.1,-,N/A,,Clear,340,2013-12-19 08:33:00
2:53 AM,-5.8,-9.4,84,30.06,10.0,NNW,15.0,-,N/A,,Clear,330,2013-12-19 08:53:00
3:13 AM,-5.8,-9.4,84,30.08,10.0,NNW,16.1,-,N/A,,Clear,330,2013-12-19 09:13:00
3:33 AM,-5.8,-11.2,77,30.09,10.0,NNW,17.3,-,N/A,,Clear,340,2013-12-19 09:33:00
3:53 AM,-5.8,-11.2,77,30.09,10.0,NNW,13.8,-,N/A,,Clear,340,2013-12-19 09:53:00
4:13 AM,-5.8,-11.2,77,30.10,10.0,NNW,11.5,-,N/A,,Clear,340,2013-12-19 10:13:00
4:33 AM,-7.6,-11.2,84,30.11,10.0,NNW,8.1,-,N/A,,Clear,330,2013-12-19 10:33:00
4:53 AM,-7.6,-11.2,84,30.12,10.0,NW,10.4,-,N/A,,Clear,320,2013-12-19 10:53:00
5:13 AM,-7.6,-13.0,77,30.13,10.0,NW,8.1,-,N/A,,Clear,310,2013-12-19 11:13:00
5:34 AM,-7.6,-13.0,77,30.15,10.0,WNW,9.2,-,N/A,,Clear,300,2013-12-19 11:34:00
5:53 AM,-9.4,-13.0,84,30.15,10.0,WNW,8.1,-,N/A,,Clear,300,2013-12-19 11:53:00
6:13 AM,-9.4,-14.8,77,30.16,10.0,WNW,9.2,-,N/A,,Clear,300,2013-12-19 12:13:00
6:34 AM,-9.4,-14.8,77,30.16,10.0,NW,9.2,-,N/A,,Clear,310,2013-12-19 12:34:00
6:53 AM,-9.4,-14.8,77,30.17,10.0,NW,13.8,-,N/A,,Clear,320,2013-12-19 12:53:00
7:13 AM,-9.4,-14.8,77,30.17,10.0,NNW,13.8,-,N/A,,Clear,330,2013-12-19 13:13:00
7:34 AM,-11.2,-14.8,84,30.17,10.0,NNW,11.5,-,N/A,,Clear,340,2013-12-19 13:34:00
7:53 AM,-11.2,-14.8,84,30.18,10.0,NNW,6.9,-,N/A,,Clear,330,2013-12-19 13:53:00
8:13 AM,-11.2,-16.6,77,30.17,10.0,NW,6.9,-,N/A,,Clear,320,2013-12-19 14:13:00
8:34 AM,-11.2,-16.6,77,30.17,10.0,NNW,5.8,-,N/A,,Clear,330,2013-12-19 14:34:00
8:53 AM,-11.2,-16.6,77,30.19,10.0,NW,4.6,-,N/A,,Clear,310,2013-12-19 14:53:00
9:13 AM,-11.2,-16.6,77,30.19,10.0,NW,4.6,-,N/A,,Clear,310,2013-12-19 15:13:00
9:34 AM,-11.2,-16.6,77,30.21,10.0,NW,9.2,-,N/A,,Clear,320,2013-12-19 15:34:00
9:53 AM,-11.2,-16.6,77,30.22,10.0,NNW,10.4,-,N/A,,Clear,330,2013-12-19 15:53:00
10:13 AM,-9.4,-14.8,77,30.22,10.0,NW,6.9,-,N/A,,Clear,310,2013-12-19 16:13:00
10:34 AM,-9.4,-14.8,77,30.24,10.0,NW,6.9,-,N/A,,Clear,320,2013-12-19 16:34:00
10:53 AM,-9.4,-14.8,77,30.24,10.0,NW,5.8,-,N/A,,Clear,320,2013-12-19 16:53:00
11:13 AM,-9.4,-14.8,77,30.24,10.0,NW,5.8,-,N/A,,Clear,320,2013-12-19 17:13:00
11:34 AM,-7.6,-14.8,71,30.23,10.0,NW,5.8,-,N/A,,Clear,320,2013-12-19 17:34:00
11:53 AM,-7.6,-13.0,77,30.23,10.0,NW,5.8,-,N/A,,Clear,320,2013-12-19 17:53:00
12:13 PM,-5.8,-11.2,77,30.22,10.0,NW,6.9,-,N/A,,Clear,320,2013-12-19 18:13:00
12:34 PM,-5.8,-11.2,77,30.22,10.0,NW,8.1,-,N/A,,Clear,320,2013-12-19 18:34:00
12:53 PM,-5.8,-11.2,77,30.21,10.0,NW,8.1,-,N/A,,Clear,320,2013-12-19 18:53:00
1:13 PM,-5.8,-11.2,77,30.19,10.0,NNW,8.1,-,N/A,,Clear,340,2013-12-19 19:13:00
1:34 PM,-4.0,-11.2,71,30.19,10.0,NNW,8.1,-,N/A,,Clear,340,2013-12-19 19:34:00
1:53 PM,-4.0,-11.2,71,30.19,10.0,NNW,6.9,-,N/A,,Clear,330,2013-12-19 19:53:00
2:13 PM,-4.0,-11.2,71,30.18,10.0,NNW,6.9,-,N/A,,Clear,340,2013-12-19 20:13:00
2:34 PM,-4.0,-11.2,71,30.19,10.0,NNW,4.6,-,N/A,,Clear,330,2013-12-19 20:34:00
2:53 PM,-4.0,-11.2,71,30.19,10.0,NNW,4.6,-,N/A,,Clear,330,2013-12-19 20:53:00
3:13 PM,-2.2,-9.4,71,30.19,10.0,NW,4.6,-,N/A,,Clear,320,2013-12-19 21:13:00
3:33 PM,-4.0,-9.4,78,30.20,10.0,NNW,3.5,-,N/A,,Clear,330,2013-12-19 21:33:00
3:53 PM,-2.2,-9.4,71,30.20,10.0,NNW,4.6,-,N/A,,Clear,340,2013-12-19 21:53:00
4:14 PM,-2.2,-9.4,71,30.20,10.0,NNW,4.6,-,N/A,,Scattered Clouds,330,2013-12-19 22:14:00
4:33 PM,-2.2,-9.4,71,30.20,10.0,NW,3.5,-,N/A,,Mostly Cloudy,310,2013-12-19 22:33:00
4:53 PM,-2.2,-9.4,71,30.20,10.0,West,4.6,-,N/A,,Overcast,280,2013-12-19 22:53:00
5:14 PM,-2.2,-9.4,71,30.19,10.0,NW,3.5,-,N/A,,Mostly Cloudy,310,2013-12-19 23:14:00
5:33 PM,-2.2,-9.4,71,30.19,10.0,NW,3.5,-,N/A,,Overcast,310,2013-12-19 23:33:00
5:53 PM,-2.2,-9.4,71,30.19,10.0,WNW,4.6,-,N/A,,Mostly Cloudy,290,2013-12-19 23:53:00
6:14 PM,-2.2,-9.4,71,30.19,10.0,West,5.8,-,N/A,,Scattered Clouds,270,2013-12-20 00:14:00
6:33 PM,-2.2,-9.4,71,30.19,10.0,WSW,3.5,-,N/A,,Scattered Clouds,250,2013-12-20 00:33:00
6:53 PM,-2.2,-9.4,71,30.19,10.0,Calm,Calm,-,N/A,,Overcast,0,2013-12-20 00:53:00
7:14 PM,-2.2,-9.4,71,30.19,10.0,Calm,Calm,-,N/A,,Overcast,0,2013-12-20 01:14:00
7:33 PM,-2.2,-9.4,71,30.18,10.0,Calm,Calm,-,N/A,,Overcast,0,2013-12-20 01:33:00
7:53 PM,-2.2,-9.4,71,30.18,10.0,Calm,Calm,-,N/A,,Overcast,0,2013-12-20 01:53:00
8:14 PM,-2.2,-7.6,78,30.17,10.0,SSW,3.5,-,N/A,,Mostly Cloudy,210,2013-12-20 02:14:00
8:33 PM,-2.2,-7.6,78,30.16,10.0,SSW,3.5,-,N/A,,Scattered Clouds,210,2013-12-20 02:33:00
8:53 PM,-4.0,-9.4,78,30.15,10.0,Calm,Calm,-,N/A,,Overcast,0,2013-12-20 02:53:00
9:14 PM,-4.0,-9.4,78,30.15,10.0,Calm,Calm,-,N/A,,Overcast,0,2013-12-20 03:14:00
9:33 PM,-4.0,-9.4,78,30.14,10.0,Calm,Calm,-,N/A,,Scattered Clouds,0,2013-12-20 03:33:00
9:53 PM,-5.8,-9.4,84,30.13,10.0,Calm,Calm,-,N/A,,Clear,0,2013-12-20 03:53:00
10:14 PM,-5.8,-9.4,84,30.13,10.0,SSE,4.6,-,N/A,,Clear,160,2013-12-20 04:14:00
10:33 PM,-5.8,-11.2,77,30.13,10.0,Calm,Calm,-,N/A,,Clear,0,2013-12-20 04:33:00
10:53 PM,-7.6,-11.2,84,30.13,10.0,Calm,Calm,-,N/A,,Clear,0,2013-12-20 04:53:00
11:14 PM,-7.6,-11.2,84,30.12,10.0,SSW,4.6,-,N/A,,Clear,200,2013-12-20 05:14:00
11:33 PM,-7.6,-11.2,84,30.11,10.0,SSW,4.6,-,N/A,,Clear,200,2013-12-20 05:33:00
11:53 PM,-7.6,-11.2,84,30.11,10.0,SSW,4.6,-,N/A,,Clear,210,2013-12-20 05:53:00